Regional Weather Roundup
Issued by NWS

Home | Current Version | Previous Version | Text Only | Print | Product List | Glossary On
Versions: 1 2 3 4 5 6 7 8 9 10 11 12 13 14 15 16 17 18 19 20 21 22 23 24 25 26 27 28 29 30 31 32 33 34 35 36 37 38 39 40 41 42 43 44 45 46 47 48 49 50
000
ASUS43 KTOP 201908
RWRKS

WEATHER ROUNDUP FOR KANSAS
NATIONAL WEATHER SERVICE GOODLAND KS
100 PM CST SAT JAN 20 2018

NOTE:  "FAIR" INDICATES FEW OR NO CLOUDS BELOW 12,000 FEET WITH NO
SIGNIFICANT WEATHER AND/OR OBSTRUCTIONS TO VISIBILITY.

KSZ001>006-013>018-027>032-041>047-202000-
NORTHWEST KANSAS

CITY           SKY/WX    TMP DP  RH WIND       PRES   REMARKS
GOODLAND       SUNNY     48  29  47 N12       29.73F
HAYS           SUNNY     47  21  35 VRB5      29.74F
HILL CITY      SUNNY     47  27  45 N10       29.74F
RUSSELL        SUNNY     51  35  54 S8        29.73F
$$

KSZ061>065-074>080-084>089-202000-
SOUTHWEST KANSAS

CITY           SKY/WX    TMP DP  RH WIND       PRES   REMARKS
DODGE CITY     SUNNY     59  23  25 CALM      29.73F
ELKHART        SUNNY     76  30  18 S8        29.72F
GARDEN CITY    SUNNY    N/A N/A N/A NW7       29.71F
GREAT BEND     SUNNY     55  35  47 S9        29.74F
LIBERAL        SUNNY     67  22  18 E3        29.72F
PRATT          SUNNY     54  37  53 S13       29.75F
$$

KSZ066>073-081>083-090>101-202000-
SOUTHEAST KANSAS

CITY           SKY/WX    TMP DP  RH WIND       PRES   REMARKS
CHANUTE        CLOUDY    54  46  74 S17       29.85F
COFFEYVILLE    PTSUNNY   60  48  64 S15G23    29.84F
HUTCHINSON     SUNNY     57  43  59 S18       29.75F
MEDICINE LODGE   N/A     56  41  57 S12       29.74F
NEWTON         MOSUNNY   57  45  62 S17       29.77F
PARSONS        CLOUDY    56  48  74 S17G24    29.85F
WICHITA INTL   SUNNY     59  44  57 S21       29.77F
WICHITA JABRA  MOSUNNY   57  44  62 S16G25    29.77F
WICHITA MCCONL SUNNY     58  43  56 SW20      29.77F
WINFIELD       MOSUNNY   59  45  59 S13G26    29.81F
$$

KSZ007>012-019>026-033>040-048>060-102>105-202000-
NORTHEAST KANSAS

CITY           SKY/WX    TMP DP  RH WIND       PRES   REMARKS
CONCORDIA      PTSUNNY   49  41  74 SE5       29.77F
EMPORIA        CLOUDY    52  43  71 S13G22    29.81F
LAWRENCE       CLOUDY    51  45  79 S8        29.85F
MANHATTAN      CLOUDY    54  43  66 S9        29.80F
MARYSVILLE     CLOUDY    50  43  76 SE3       29.81F
OLATHE IND     CLOUDY    51  44  77 S12       29.86F
OLATHE EXE     CLOUDY    50  44  80 S7        29.86F
SALINA         SUNNY     56  44  64 S14       29.77F
TOPEKA BILLARD CLOUDY    51  45  79 S7        29.83F
TOPEKA FORBES  CLOUDY    52  45  77 S10       29.83F
$$




USA.gov is the U.S. government's official web portal to all federal, state and local government web resources and services.